Weather History for KSTJ - August, 2012

Change the Weather History Date:

Sunday, August 26, 2012

  Actual Average Record
Temperature  
Mean Temperature 74 °F 74 °F  
Max Temperature 83 °F 85 °F 105 °F (1936)
Min Temperature 65 °F 62 °F 46 °F (1910)
Degree Days  
Heating Degree Days 0 0  
Month to date heating degree days 4 0  
Since 1 June heating degree days 12 9  
Since 1 July heating degree days 4 1  
Cooling Degree Days 9 9  
Month to date cooling degree days 209 283  
Year to date cooling degree days 1379 1037  
Since 1 June cooling degree days 1112 924  
Growing Degree Days 24 (Base 50)    
Moisture  
Dew Point 70 °F    
Average Humidity 85    
Maximum Humidity 100    
Minimum Humidity 69    
Precipitation  
Precipitation 0.03 in 0.15 in 1.94 in (1982)
Month to date precipitation 1.54 3.27  
Year to date precipitation 16.68 25.59  
Sea Level Pressure  
Sea Level Pressure 29.92 in    
Wind  
Wind Speed 6 mph (West)    
Max Wind Speed 14 mph    
Max Gust Speed 17 mph    
Visibility 8 miles    
Events Rain    
T = Trace of Precipitation, MM = Missing Value Source: NWS Daily Summary

Daily Weather History Graph

Daily Weather History Graph

Search for Another Location

Airport or City:

Trip Planner

Search our weather history database for the weather conditions in past years. The results will help you decide how hot, cold, wet, or windy it might be!

Date:

Astronomy

Aug. 26, 2012 Rise Set
Actual Time 6:42 AM CDT 7:59 PM CDT
Civil Twilight 6:14 AM CDT 8:27 PM CDT
Nautical Twilight 5:40 AM CDT 9:00 PM CDT
Astronomical Twilight 5:05 AM CDT 9:35 PM CDT
Moon 4:29 PM CDT (8/26) 1:24 AM CDT (8/26)
Length of Visible Light 14h 12m
Length of Day
13h 16m
Waxing Gibbous, 73% of the Moon is Illuminated
Aug 26
Waxing Gibbous
Aug 31
Full
Sep 8
Last Quarter
Sep 15
New
Sep 22
First Quarter

Hourly Weather History & Observations

Time (CDT) Temp. Heat Index Dew Point Humidity Pressure Visibility Wind Dir Wind Speed Gust Speed Precip Events Conditions
12:05 AM 71.6 °F - 69.8 °F 94% 29.88 in 5.0 mi NNE 3.5 mph - 0.02 in Rain Light Rain
12:41 AM 71.6 °F - 69.8 °F 94% 29.87 in 2.0 mi East 3.5 mph - 0.17 in Rain Light Rain
12:45 AM 71.6 °F - 71.6 °F 100% 29.87 in 4.0 mi Calm Calm - N/A Rain Light Rain
12:53 AM 72.0 °F - 71.1 °F 97% 29.86 in 6.0 mi Calm Calm - 0.17 in Rain Light Rain
1:04 AM 71.6 °F - 71.6 °F 100% 29.88 in 8.0 mi Calm Calm - 0.01 in Rain Light Rain
1:12 AM 71.6 °F - 71.6 °F 100% 29.87 in 9.0 mi Calm Calm - 0.01 in   Overcast
1:21 AM 73.4 °F - 71.6 °F 94% 29.87 in 9.0 mi Calm Calm - N/A   Overcast
1:53 AM 73.0 °F - 71.1 °F 93% 29.85 in 8.0 mi Calm Calm - 0.01 in   Overcast
2:53 AM 73.0 °F - 71.1 °F 93% 29.84 in 10.0 mi South 6.9 mph - N/A   Mostly Cloudy
3:36 AM 73.4 °F - 69.8 °F 88% 29.87 in 9.0 mi South 9.2 mph - N/A   Overcast
3:53 AM 72.0 °F - 70.0 °F 93% 29.84 in 7.0 mi South 6.9 mph - N/A   Overcast
4:53 AM 72.0 °F - 70.0 °F 93% 29.85 in 9.0 mi South 5.8 mph - N/A   Overcast
5:24 AM 71.6 °F - 69.8 °F 94% 29.88 in 9.0 mi South 9.2 mph - N/A   Overcast
5:53 AM 71.1 °F - 69.1 °F 93% 29.86 in 9.0 mi South 4.6 mph - N/A   Overcast
6:37 AM 71.6 °F - 69.8 °F 94% 29.90 in 9.0 mi SSW 5.8 mph - N/A   Overcast
6:53 AM 71.6 °F - 69.8 °F 94% 29.90 in 8.0 mi SSW 5.8 mph - N/A   Overcast
7:29 AM 69.8 °F - 69.8 °F 100% 29.91 in 8.0 mi SSW 5.8 mph - 0.00 in   Overcast
7:53 AM 70.0 °F - 69.1 °F 97% 29.90 in 4.0 mi SSW 3.5 mph - 0.00 in   Overcast
8:13 AM 69.8 °F - 69.8 °F 100% 29.93 in 3.0 mi SW 4.6 mph - 0.00 in   Overcast
8:18 AM 69.8 °F - 69.8 °F 100% 29.93 in 1.8 mi SW 5.8 mph - 0.00 in   Overcast
8:53 AM 71.1 °F - 69.1 °F 93% 29.91 in 3.0 mi SW 5.8 mph - 0.01 in   Overcast
9:32 AM 71.6 °F - 69.8 °F 94% 29.94 in 4.0 mi SSW 4.6 mph - 0.01 in Rain Light Rain
9:53 AM 72.0 °F - 71.1 °F 97% 29.93 in 5.0 mi SSW 4.6 mph - 0.02 in Rain Light Rain
10:37 AM 73.4 °F - 69.8 °F 88% 29.96 in 10.0 mi West 8.1 mph - 0.00 in   Overcast
10:53 AM 72.0 °F - 70.0 °F 93% 29.94 in 10.0 mi West 9.2 mph - 0.00 in   Overcast
11:09 AM 73.4 °F - 71.6 °F 94% 29.96 in 10.0 mi West 8.1 mph - N/A   Overcast
11:53 AM 75.9 °F - 72.0 °F 87% 29.94 in 10.0 mi NW 10.4 mph - N/A   Overcast
12:23 PM 78.8 °F - 71.6 °F 78% 29.96 in 10.0 mi NNW 5.8 mph - N/A   Overcast
12:46 PM 78.8 °F - 71.6 °F 78% 29.97 in 10.0 mi North 12.7 mph 17.3 mph N/A   Overcast
12:53 PM 78.1 °F - 72.0 °F 81% 29.94 in 10.0 mi North 11.5 mph 17.3 mph N/A   Overcast
1:53 PM 80.6 °F 84.6 °F 71.6 °F 74% 29.96 in 10.0 mi North 9.2 mph - N/A   Overcast
2:53 PM 78.1 °F - 70.0 °F 76% 29.95 in 10.0 mi North 12.7 mph - N/A   Overcast
3:53 PM 78.1 °F - 70.0 °F 76% 29.95 in 10.0 mi North 9.2 mph - N/A   Overcast
4:53 PM 80.1 °F 83.2 °F 70.0 °F 71% 29.95 in 10.0 mi NNW 6.9 mph - N/A   Overcast
5:53 PM 80.1 °F 82.9 °F 69.1 °F 69% 29.94 in 10.0 mi North 8.1 mph - N/A   Partly Cloudy
6:53 PM 81.0 °F 84.1 °F 69.1 °F 67% 29.95 in 10.0 mi NNW 8.1 mph - N/A   Scattered Clouds
7:53 PM 75.0 °F - 69.1 °F 82% 29.96 in 10.0 mi NNW 3.5 mph - N/A   Clear
8:53 PM 72.0 °F - 68.0 °F 87% 29.99 in 10.0 mi North 3.5 mph - N/A   Clear
9:53 PM 71.1 °F - 66.9 °F 87% 30.01 in 10.0 mi Calm Calm - N/A   Clear
10:53 PM 68.0 °F - 66.0 °F 93% 30.03 in 10.0 mi Calm Calm - N/A   Clear
11:53 PM 66.9 °F - 66.0 °F 97% 30.04 in 10.0 mi Calm Calm - N/A   Clear